Regional Weather Roundup
Issued by NWS

Home | Current Version | Previous Version | Text Only | Print | Product List | Glossary Off
Versions: 1 2 3 4 5 6 7 8 9 10 11 12 13 14 15 16 17 18 19 20 21 22 23 24 25 26 27 28 29 30 31 32 33 34 35 36 37 38 39 40 41 42 43 44 45 46 47 48 49 50

000
ASUS45 KBOU 280507
RWRCO

WEATHER ROUNDUP FOR COLORADO
NATIONAL WEATHER SERVICE DENVER/BOULDER CO
1100 PM MDT THU JUL 27 2017

NOTE: "FAIR" INDICATES FEW OR NO CLOUDS BELOW 12000 FEET WITH NO
SIGNIFICANT WEATHER AND/OR OBSTRUCTIONS TO VISIBILITY.

COZ001>005-013-030-031-280600-
...NORTHWEST COLORADO...

CITY           SKY/WX    TMP DP  RH WIND       PRES   REMARKS
CRAIG          FAIR      62  53  72 CALM      30.21S
HAYDEN         FAIR      64  46  52 E7        30.24S
MEEKER         FAIR      66  51  58 E5        30.22S
RABBIT EARS PA FAIR      55  41  58 N5        30.56F
STEAMBOAT SPGS FAIR      58  50  75 CALM      30.27F
WALDEN         FAIR      52  43  71 SE7       30.37F
$$

COZ006>008-011-280600-
...WEST CENTRAL VALLEYS...

CITY           SKY/WX    TMP DP  RH WIND       PRES   REMARKS
GRAND JUNCTION FAIR      80  53  39 NW3       30.05R
MONTROSE       FAIR      73  52  47 SE10      30.16S
EAGLE          FAIR      68  52  56 CALM      30.26R
RIFLE          FAIR      75  54  47 SE5       30.13R
DELTA          FAIR      78  48  35 CALM      30.10R
NUCLA          FAIR      73  50  43 E9        30.20S
$$

COZ017>023-064>068-280600-
...SOUTHWEST COLORADO...

CITY           SKY/WX    TMP DP  RH WIND       PRES   REMARKS
DURANGO        MOCLDY    69  54  58 E3        30.26R
CORTEZ         CLOUDY    75  51  43 S7        30.20R
PAGOSA SPRINGS FAIR      64  50  60 NE6       30.36S
TELLURIDE      FAIR      59  52  77 SE7       30.46S
WOLF CREEK PAS CLOUDY    46  46 100 NW3       30.74R
$$

COZ009-010-012-014-032>034-037-058>063-280600-
...CENTRAL COLORADO...

CITY           SKY/WX    TMP DP  RH WIND       PRES   REMARKS
ASPEN          FAIR      63  49  60 SW8       30.32S
BUENA VISTA    CLOUDY    63  52  66 E3        30.42R
COPPER MTN     FAIR      54  41  62 CALM      30.69S
BERTHOUD PASS  FAIR      45  34  65 W17       30.70F
COTTONWOOD PAS FAIR      59  50  72 E7        30.55S
GUNNISON       FAIR      66  49  54 NE6       30.36R
KREMMLING      FAIR      63  52  67 CALM      30.33S
LEADVILLE      FAIR      51  47  86 E3        30.52R
MONARCH PASS     N/A     46  45  93 E10       30.79S
SALIDA         MOCLDY    64  58  79 CALM      30.45S
SUNLIGHT       FAIR      55  37  50 CALM      30.61S
WILKERSON PASS CLOUDY    50  45  81 W7        30.67S
$$

COZ069>075-280600-
...SAN LUIS VALLEY/SANGRE DE CRISTO MOUNTAINS...

CITY           SKY/WX    TMP DP  RH WIND       PRES   REMARKS
ALAMOSA        FAIR      63  55  75 CALM      30.35S
DEL NORTE      MOCLDY    64  51  64 W9        30.40S
LA VETA PASS   NOT AVBL
SAGUACHE         N/A    N/A N/A N/A MISG        N/A
$$

COZ035-036-038>040-280600-
...NORTHERN COLORADO FRONT RANGE...

CITY           SKY/WX    TMP DP  RH WIND       PRES   REMARKS
DENVER INTL AP MOCLDY    74  59  59 S15       30.11F
DMNS CITY PARK   N/A     73  56  55 S1G10     30.12S
AURORA         MOCLDY    72  59  63 S14       30.15F
FRONT RANGE AP FAIR      73  61  64 S14G22    30.14F
ERIE MUNI ARPT FAIR      73  60  65 CALM      30.09F
BOULDER MUN AP FAIR      75  55  50 SW5       30.10F
CENTENNIAL     MOCLDY    70  56  61 S6        30.17F
BROOMFIELD     FAIR      72  59  64 SW7       30.14F
FORT COLLINS   FAIR      71  63  75 SW7       30.08F
LONGMONT       FAIR      72  60  67 NW3       30.11S
$$

COZ041-046-047-076>085-087-088-280600-
...PIKES PEAK/PALMER DIVIDE AND SOUTHERN FOOTHILLS...

CITY           SKY/WX    TMP DP  RH WIND       PRES   REMARKS
COLO. SPRINGS  CLOUDY    68  65  90 SE10      30.26R
A. F. ACADEMY  CLOUDY    67  64  89 S7        30.27S
SCHRIEVER AFB  MOCLDY    65  64  96 S8        30.27R
CHEYENNE MTN   CLOUDY    64  59  83 CALM      30.26R
ELLICOTT       FAIR     N/A N/A N/A S9        30.24S
FALCON           N/A     65  64  97 S10       30.31S FOG
FORT CARSON    FAIR      68  65  91 S6        30.22R
LIMON          FAIR      67  65  93 S12       30.19S
MONUMENT HILL  FAIR      63  61  94 SW12G20   30.31F
CANON CITY     CLEAR     66  61  82 W9        30.21F
WALSENBURG     FAIR      66  61  82 W5        30.25R
TRINIDAD       FAIR      66  57  72 W9        30.23S
$$

COZ042>045-048>051-090-091-280600-
...NORTHEAST COLORADO...

CITY           SKY/WX    TMP DP  RH WIND       PRES   REMARKS
GREELEY ARPT   NOT AVBL
AKRON          CLOUDY    73  61  65 S13       30.12S
BURLINGTON     FAIR      67  62  84 S9        30.14R
WRAY           NOT AVBL
YUMA           FAIR      70  55  60 S13       30.08F
STERLING       FAIR      68  64  88 S3        30.08S
HOLYOKE        CLOUDY    66  61  82 NE29G37   30.16R
FORT MORGAN    FAIR      74  60  62 SE12      30.09R
$$

COZ086-089-092>099-280600-
...SOUTHEAST COLORADO...

CITY           SKY/WX    TMP DP  RH WIND       PRES   REMARKS
PUEBLO         FAIR      73  66  78 E5        30.15S
LA JUNTA       FAIR      73  67  81 E6        30.12F
LAMAR          FAIR      72  66  81 SE7       30.09S
SPRINGFIELD      N/A     67  67 100 SE6       30.15S
$$



USA.gov is the U.S. government's official web portal to all federal, state and local government web resources and services.